Content
SEND FEEDBACK

Daily
Averages
Monthly
Summary
United States of America

BOAZ, WEST VIRGINIA


Home > North America > United States > West Virginia
Elevation: 860 feet     Latitude: 39 21N     Longitude: 081 25W

WEATHER
 
SELECT A DAY
Number of Records: 206,197;   Date Range: 1/1/95 - 7/7/14
 
SHARE

PRINT THIS DATA

[ ← Previous Day ]
WEATHER ALMANAC - JANUARY 31, 2013
[ Next Day → ]
[ °C ]   °F
Weather ElementAverageHighLow
Temperature28.9 °F39.2 °F (12:19 am)26.1 °F (10:53 pm)
Dewpoint20.9 °F33.8 °F (12:19 am)10 °F (3:53 pm)
Humidity73 %93 % (11:12 pm)45 % (3:53 pm)
Barometer29.82 in29.95 in (7:53 pm)29.44 in (12:19 am)
Wind Speed13.5 mph24.2 mph (1:32 am)
Wind Gust40.3 mph (1:53 am)
Weather ElementAverage
Visibility5.6 mi
Wind DirectionWSW (244.1 °)

Weather ElementTotal
Precipitation0.11 in
Heating Degree Days32.4 (Base 65)
Averaged from 59 records on January 31, 2013
WEATHER CONDITIONS BREAKOUT
WIND DIRECTION BREAKOUT
WEATHER BY HOUR - JANUARY 31, 2013
[ °C ]   °F
Local TimeTemperatureDewpointHumidityBarometerVisibilityWind DirectionWind SpeedGust SpeedPrecipitationEventsConditions
12:19 AM39.2 °F33.8 °F81 %29.44 in10.0 miWest (270°)16.1 mph24.2 mph0.00 inOvercast
12:53 AM39.0 °F33.1 °F79 %29.48 in10.0 miWest (260°)23.0 mph29.9 mph0.00 inOvercast
1:14 AM37.4 °F33.8 °F87 %29.50 in6.0 miWest (270°)18.4 mph31.1 mph0.01 inRainLight Rain
1:32 AM35.6 °F30.2 °F81 %29.52 in7.0 miWest (270°)24.2 mph35.7 mph0.02 inOvercast
1:53 AM35.1 °F30.0 °F82 %29.55 in10.0 miWest (280°)21.9 mph40.3 mph0.02 inOvercast
2:53 AM34.0 °F25.0 °F70 %29.60 in10.0 miWest (280°)23.0 mph33.4 mphOvercast
3:07 AM33.8 °F24.8 °F70 %29.60 in10.0 miWest (270°)20.7 mph33.4 mphOvercast
3:53 AM34.0 °F23.0 °F64 %29.62 in10.0 miWSW (250°)17.3 mph29.9 mph0.00 inOvercast
4:53 AM33.1 °F21.9 °F64 %29.65 in10.0 miWest (260°)16.1 mph26.5 mphOvercast
5:53 AM32.0 °F21.0 °F64 %29.69 in9.0 miWest (260°)12.7 mph31.1 mph0.00 inOvercast
6:24 AM30.2 °F23.0 °F75 %29.71 in6.0 miWSW (250°)10.4 mph0.00 inSnowLight Snow
6:53 AM30.9 °F21.0 °F67 %29.73 in10.0 miWest (260°)12.7 mph20.7 mph0.00 inSnowLight Snow
7:10 AM30.2 °F21.2 °F69 %29.74 in10.0 miWest (270°)19.6 mph31.1 mphOvercast
7:49 AM28.4 °F21.2 °F74 %29.76 in2.0 miWest (280°)18.4 mph34.5 mph0.00 inSnowLight Snow
7:53 AM28.9 °F21.0 °F72 %29.78 in2.0 miWest (260°)13.8 mph32.2 mph0.00 inSnowLight Snow
8:24 AM28.4 °F19.4 °F69 %29.78 in2.5 miWest (270°)11.5 mph24.2 mph0.00 inSnowLight Snow
8:53 AM28.0 °F19.0 °F69 %29.82 in10.0 miWest (260°)16.1 mph24.2 mph0.00 inSnowLight Snow
9:01 AM28.4 °F17.6 °F64 %29.80 in9.0 miWest (260°)16.1 mph24.2 mph0.00 inOvercast
9:53 AM28.0 °F18.0 °F66 %29.84 in5.0 miWest (260°)13.8 mph20.7 mph0.00 inSnowLight Snow
10:16 AM28.4 °F19.4 °F69 %29.85 in1.0 miWest (270°)15.0 mph20.7 mph0.00 inSnowLight Snow
10:21 AM26.6 °F21.2 °F80 %29.85 in0.8 miWest (280°)17.3 mph23.0 mph0.00 inSnowLight Snow
10:28 AM26.6 °F21.2 °F80 %29.85 in0.2 miWest (270°)13.8 mph29.9 mph0.00 inFog-SnowSnow
10:37 AM26.6 °F21.2 °F80 %29.85 in0.8 miWest (260°)13.8 mph29.9 mph0.00 inSnowLight Snow
10:45 AM26.6 °F21.2 °F80 %29.86 in2.5 miWest (260°)15.0 mph25.3 mph0.00 inSnowLight Snow
10:53 AM27.0 °F19.9 °F75 %29.88 in7.0 miWest (260°)10.4 mph25.3 mph0.00 inSnowLight Snow
11:03 AM26.6 °F19.4 °F74 %29.86 in1.8 miWSW (250°)19.6 mph31.1 mph0.00 inSnowLight Snow
11:14 AM26.6 °F19.4 °F74 %29.86 in2.0 miWest (260°)15.0 mph31.1 mph0.00 inSnowLight Snow
11:21 AM28.4 °F21.2 °F74 %29.86 in9.0 miWSW (240°)12.7 mph23.0 mph0.00 inOvercast
11:53 AM28.9 °F19.0 °F67 %29.88 in7.0 miWSW (250°)12.7 mph25.3 mph0.00 inOvercast
11:59 AM28.4 °F19.4 °F69 %29.87 in2.0 miWest (260°)20.7 mph26.5 mph0.00 inSnowLight Snow
12:02 PM28.4 °F19.4 °F69 %29.87 in0.8 miWest (270°)16.1 mph28.8 mph0.00 inSnowLight Snow
12:07 PM26.6 °F21.2 °F80 %29.87 in0.2 miWest (260°)18.4 mph35.7 mph0.00 inFog-SnowSnow
12:16 PM26.6 °F21.2 °F80 %29.87 in0.2 miWest (270°)13.8 mph31.1 mph0.01 inFog-SnowSnow
12:22 PM26.6 °F21.2 °F80 %29.87 in1.2 miWest (260°)16.1 mph23.0 mph0.01 inSnowLight Snow
12:42 PM26.6 °F19.4 °F74 %29.88 in2.5 miWSW (250°)18.4 mph25.3 mph0.01 inSnowLight Snow
12:49 PM26.6 °F17.6 °F69 %29.88 in9.0 miWest (260°)19.6 mph34.5 mph0.01 inMostly Cloudy
12:53 PM28.0 °F17.1 °F63 %29.91 in10.0 miWest (270°)20.7 mph34.5 mph0.01 inMostly Cloudy
1:53 PM28.0 °F10.9 °F49 %29.92 in10.0 miWest (270°)16.1 mph26.5 mphOvercast
2:53 PM28.9 °F10.9 °F47 %29.93 in10.0 miWest (270°)11.5 mph26.5 mphOvercast
3:53 PM28.9 °F10.0 °F45 %29.94 in10.0 miWest (270°)20.7 mph28.8 mphOvercast
4:53 PM28.9 °F12.0 °F49 %29.94 in10.0 miWSW (240°)12.7 mph25.3 mphMostly Cloudy
5:53 PM28.0 °F12.0 °F51 %29.94 in10.0 miWSW (250°)11.5 mph18.4 mphMostly Cloudy
6:53 PM28.0 °F16.0 °F61 %29.94 in10.0 miSSW (200°)6.9 mphOvercast
7:53 PM27.0 °F17.1 °F66 %29.95 in10.0 miSSW (200°)5.8 mphScattered Clouds
8:25 PM28.4 °F19.4 °F69 %29.93 in1.8 miWSW (240°)11.5 mph17.3 mph0.00 inSnowLight Snow
8:34 PM26.6 °F21.2 °F80 %29.93 in0.8 miWSW (250°)5.8 mph17.3 mph0.00 inSnowLight Snow
8:39 PM26.6 °F21.2 °F80 %29.92 in2.5 miSW (220°)5.8 mph0.00 inSnowLight Snow
8:46 PM26.6 °F19.4 °F74 %29.92 in9.0 miSW (220°)9.2 mph0.00 inOvercast
8:53 PM27.0 °F19.9 °F75 %29.95 in10.0 miSW (220°)5.8 mph0.00 inOvercast
9:53 PM27.0 °F21.0 °F78 %29.95 in5.0 miWSW (240°)8.1 mph0.00 inSnowLight Snow
10:00 PM26.6 °F21.2 °F80 %29.92 in1.8 miSW (230°)9.2 mph17.3 mph0.00 inSnowLight Snow
10:07 PM26.6 °F23.0 °F86 %29.91 in1.2 miWSW (250°)6.9 mph0.00 inSnowLight Snow
10:22 PM26.6 °F23.0 °F86 %29.91 in2.0 miVariable4.6 mph0.00 inSnowLight Snow
10:27 PM26.6 °F23.0 °F86 %29.91 in1.5 miVariable4.6 mph0.00 inSnowLight Snow
10:53 PM26.1 °F23.0 °F88 %29.92 in1.8 miWSW (250°)6.9 mph0.01 inSnowLight Snow
11:04 PM26.6 °F23.0 °F86 %29.89 in2.5 miSW (220°)4.6 mph0.00 inSnowLight Snow
11:12 PM26.6 °F24.8 °F93 %29.88 in4.0 miSSW (200°)4.6 mph0.00 inSnowLight Snow
11:29 PM26.6 °F23.0 °F86 %29.88 in5.0 miSSW (210°)4.6 mph0.00 inOvercast
11:53 PM26.1 °F23.0 °F88 %29.90 in6.0 miSSW (210°)3.5 mph0.00 inOvercast
Hourly data recorded from KPKB, located miles away from Boaz, West Virginia







STORIES FROM OUR PARTNERS